Regional Weather Roundup
Issued by NWS

Home | Current Version | Previous Version | Graphics & Text | Print | Product List | Glossary On
Versions: 1 2 3 4 5 6 7 8 9 10 11 12 13 14 15 16 17 18 19 20 21 22 23 24 25 26 27 28 29 30 31 32 33 34 35 36 37 38 39 40 41 42 43 44 45 46 47 48 49 50
000
ASUS43 KLOT 222004
RWRIL

ILLINOIS REGIONAL WEATHER ROUNDUP
NATIONAL WEATHER SERVICE CHICAGO/ROMEOVILLE IL
300 PM CDT TUE AUG 22 2017

NOTE: "FAIR" INDICATES FEW OR NO CLOUDS BELOW 12,000 FEET WITH NO
SIGNIFICANT WEATHER AND/OR OBSTRUCTIONS TO VISIBILITY.

* THESE STATIONS ARE NOT UNDER NWS QUALITY CONTROL. THEY ALSO MAY NOT
  REPORT WEATHER SUCH AS PRECIPITATION OR FOG.

ILZ001-002-007-009-015-016-024-222100-
NORTHWEST ILLINOIS

CITY           SKY/WX    TMP DP  RH WIND       PRES   REMARKS
MOLINE         MOSUNNY   79  53  40 W15G28    30.00S
STERLING*      MOSUNNY   78  57  48 W18G25    29.97S
SAVANNA*       MOSUNNY   77  54  44 NW16      29.99S
$$

ILZ003-004-008-010-011-017-018-222100-
NORTH CENTRAL ILLINOIS

CITY           SKY/WX    TMP DP  RH WIND       PRES   REMARKS
ROCKFORD       MOSUNNY   77  53  43 NW21G26   29.96R
FREEPORT*      PTSUNNY   76  53  44 NW17G23   29.99S
ROCHELLE*      MOSUNNY   77  56  49 NW15      29.96S
DE KALB*       MOSUNNY   76  58  52 NW15G22   29.95S
$$

ILZ005-006-012>014-019>023-222100-
NORTHEAST ILLINOIS

CITY           SKY/WX    TMP DP  RH WIND       PRES   REMARKS
CHICAGO-OHARE  MOSUNNY   80  56  43 NW18G25   29.90S HX  80
CHICAGO-MIDWAY PTSUNNY   81  55  40 W20G26    29.89F HX  81
AURORA         MOSUNNY   77  60  55 W13       29.93S
LANSING*       MOSUNNY   79  59  49 W12G23    29.90F HX  80
JOLIET*        MOSUNNY   79  59  50 NW10G16   29.93S HX  80
WAUKEGAN       MOSUNNY   77  54  44 NW13G20   29.90R
DUPAGE AIRPORT PTSUNNY   78  59  51 NW13G23   29.91F
WHEELING       MOSUNNY   81  55  40 NW15G23   29.91S HX  81
MORRIS*        MOSUNNY   77  61  57 NW13G23   29.93S
NORTHERLY ISL    N/A     79  48  33 W16         N/A
$$

LMZ740>746-222100-
SOUTHERN LAKE MICHIGAN

STATION/POSITION SKY/WX   TEMP    WIND        PRES    VSBY  WAVE
                          AIR SEA DIR/SP/G                  HT/PER
                          (F)     (DEG/KT/KT) (MB)    (MI)  (FT/S)
SOUTHERN BUOY              72 72  350/ 17/ 21 1011.2          3/ 4
WILMETTE HARBOR            76 74  290/ 14/ 17   N/A           2/ 3
HARRISON CRIB              78     300/ 18/ 20   N/A
CALUMET HARBOR             80     260/  6/ 11 1011.7F
BURNS HARBOR               74     280/  8/ 10 1012.9S
MICHIGAN CITY              74     280/ 14/ 15   N/A
MICHIGAN CITY 6N           74 74  290/ 10/ 12   N/A           4/ 4
ST. JOSEPH                 72 73  290/ 12/ 16 1012.0F         4/ 5
$$

ILZ025>027-034>036-040-047-049-050-058-095>099-222100-
WEST-CENTRAL ILLINOIS

CITY           SKY/WX    TMP DP  RH WIND       PRES   REMARKS
QUINCY         SUNNY     79  58  48 NW15      30.02F HX  80
GALESBURG*     PTSUNNY   77  59  54 NW14      30.01F
MACOMB*        MOSUNNY   76  61  59 NW14      30.04S
JACKSONVILLE*  MOSUNNY   80  63  56 NW12G20   29.99F HX  81
$$

ILZ028>032-037-038-041>044-048-051>054-059>061-222100-
CENTRAL ILLINOIS

CITY           SKY/WX    TMP DP  RH WIND       PRES   REMARKS
BLOOMINGTON    PTSUNNY   76  62  62 NW16      29.98S
DECATUR        PTSUNNY   79  66  64 NW17      29.97S HX  81
PEORIA         MOSUNNY   76  61  59 VRB7G18   29.99S
LACON*         MOSUNNY   76  60  56 NW9       29.97F
LINCOLN*       MOSUNNY   80  66  62 NW13      29.98S HX  82
SPRINGFIELD    MOSUNNY   82  67  60 NW15      29.98F HX  84
TAYLORVILLE    NOT AVBL
$$

ILZ033-039-045-046-055>057-062-063-222100-
EAST-CENTRAL ILLINOIS

CITY           SKY/WX    TMP DP  RH WIND       PRES   REMARKS
CHAMPAIGN      PTSUNNY   79  66  64 W14G21    29.95F HX  81
RANTOUL*       PTSUNNY   80  68  67 NW14G21   29.95F HX  82
MATTOON        PTSUNNY   80  68  66 W15       29.95F HX  83
PARIS*         PTSUNNY   81  68  65 NW16G22   29.95F HX  83
$$

ILZ079-100>102-222100-
SOUTHWEST ILLINOIS

CITY           SKY/WX    TMP DP  RH WIND       PRES   REMARKS
ALTON          PTSUNNY   81  70  69 W8        30.01F HX  84
BELLEVILLE     MOSUNNY   82  69  65 NW16      29.99F HX  85
CAHOKIA*       PTSUNNY   82  67  60 NW17      30.00F HX  84
SPARTA*        CLOUDY    79  69  72 NW15      30.00F HX  81
$$

ILZ064>066-069>071-074>076-080>082-084>086-088>090-092>094-222100-
SOUTH-CENTRAL ILLINOIS

CITY           SKY/WX    TMP DP  RH WIND       PRES   REMARKS
CARBONDALE     CLOUDY    80  70  71 NW10G22   29.97F HX  83
CAIRO*         CLOUDY    77  71  83 N7        29.96F
EFFINGHAM*     MOSUNNY   80  69  68 W13G18    29.97F HX  82
MARION         PTSUNNY   82  72  69 NW13      29.97F HX  87
MT. VERNON       N/A     80  71  74 W6        29.97F HX  84
CENTRALIA*     CLOUDY    80  71  74 NW10G17   29.97F HX  83
SALEM*         PTSUNNY   81  68  64 NW9       29.98F HX  84
METROPOLIS*    CLOUDY    73  70  91 N3        29.98F
$$

ILZ067-068-072-073-078-083-087-091-222100-
SOUTHEAST ILLINOIS

CITY           SKY/WX    TMP DP  RH WIND       PRES   REMARKS
LAWRENCEVILLE  CLOUDY    81  71  71 W9        29.94F HX  85
FLORA*         PTSUNNY   80  70  72 NW8       29.97F HX  83
FAIRFIELD*     CLOUDY    78  71  79 NW3       29.95F HX  80
HARRISBURG*    CLOUDY    79  74  84 NW9       29.96F HX  82
ROBINSON*      MOSUNNY   80  71  75 W14       29.94F HX  83
CARMI*         CLOUDY    78  73  84 NW12G17   29.94F HX  81
$$

ABBREVIATIONS USED IN REMARKS
   TC - TEMPERATURE IN CELSIUS
  WCI - WIND CHILL INDEX
   HX - HEAT INDEX
  VSB - VISIBILITY
$$





USA.gov is the U.S. government's official web portal to all federal, state and local government web resources and services.